This is the latest recevied weather packets stored in our database for station/object K5SVV. If no packets are shown the sender has not sent any weather packets the latest 10 day(s).
| Time | Temp. | Humidity | Pressure | Rain* | Wind** | Luminosity | Snow |
|---|---|---|---|---|---|---|---|
| 1788273821 | 30.56° C | 66% | 1017.1 hPa | 0 mm | - | 411 W/m² | - |
| 1788273517 | 30.56° C | 66% | 1017.2 hPa | 0 mm | - | 406 W/m² | - |
| 1788273213 | 30.56° C | 67% | 1017.1 hPa | 0 mm | - | 373 W/m² | - |
| 1788272909 | 30° C | 67% | 1016.9 hPa | 0 mm | - | 360 W/m² | - |
| 1788272608 | 30° C | 67% | 1017.1 hPa | 0 mm | - | 347 W/m² | - |
| 1788272303 | 30° C | 69% | 1016.8 hPa | 0 mm | - | 321 W/m² | - |
| 1788271998 | 29.44° C | 70% | 1016.8 hPa | 0 mm | - | 311 W/m² | - |
| 1788271697 | 29.44° C | 71% | 1017.1 hPa | 0 mm | - | 271 W/m² | - |
| 1788271395 | 28.89° C | 71% | 1016.8 hPa | 0 mm | - | 247 W/m² | - |
| 1788271091 | 28.89° C | 72% | 1017 hPa | 0 mm | - | 229 W/m² | - |
| 1788270790 | 28.89° C | 74% | 1016.9 hPa | 0 mm | - | 88 W/m² | - |
| 1788270487 | 28.33° C | 75% | 1017.3 hPa | 0 mm | - | 202 W/m² | - |
| 1788270181 | 28.33° C | 75% | 1017 hPa | 0 mm | - | 184 W/m² | - |
| 1788269880 | 27.78° C | 76% | 1017 hPa | 0 mm | - | 170 W/m² | - |
| 1788269574 | 27.78° C | 77% | 1016.8 hPa | 0 mm | - | 153 W/m² | - |
| 1788269267 | 27.22° C | 78% | 1016.9 hPa | 0 mm | - | 137 W/m² | - |
| 1788268963 | 27.22° C | 78% | 1017 hPa | 0 mm | - | 127 W/m² | - |
| 1788268657 | 26.67° C | 79% | 1016.9 hPa | 0 mm | - | 115 W/m² | - |
| 1788268357 | 26.67° C | 79% | 1016.6 hPa | 0 mm | - | 93 W/m² | - |
| 1788268052 | 26.11° C | 80% | 1016.7 hPa | 0 mm | - | 85 W/m² | - |
| 1788267751 | 25.56° C | 81% | 1016.7 hPa | 0 mm | - | 77 W/m² | - |
| 1788267448 | 25.56° C | 82% | 1016.9 hPa | 0 mm | - | 62 W/m² | - |
| 1788267144 | 25° C | 83% | 1016.7 hPa | 0 mm | - | 49 W/m² | - |
| 1788266833 | 24.44° C | 84% | 1016.5 hPa | 0 mm | - | 40 W/m² | - |
| 1788266532 | 24.44° C | 84% | 1016.6 hPa | 0 mm | - | 34 W/m² | - |
* Rain latest hour (hover to see other rain measurements)
** Current wind speed in m/s (hover to see current wind gust speed)